Date String (YYYY-MM-DD hh:mm:ss) UTC,Instrument flags,Ambient pressure (hPa),Sample flow (lpm),Bypass flow (lpm),Sample temperature (°C),Ambient temperature (°C),ASC tube jacket temperature (°C),LED temperature (°C),Box temperature (°C),Sample RH (%),Span deviation,Mass concentration (μg/m³),Mass concentration (μg/m³),Mass concentration (μg/m³)
DateTimeUTC,F1_M11,P_M11,Q1_M11,Q2_M11,T1_M11,T2_M11,T3_M11,T4_M11,T5_M11,U1_M11,ZSPAN_M11,X0_M11,X2_M11,X1_M11
2021-09-10 01:00:00,,0828.8,4.99,0.00,28.8,26.7,00.0,37.9,30.5,13.7,0000.6,0037.01,0020.12,0018.32
2021-09-10 01:01:00,,0828.8,5.01,0.00,28.8,27.1,00.0,37.9,30.6,13.7,0000.6,0036.79,0020.22,0018.33
2021-09-10 01:02:00,,0828.9,5.00,0.00,28.9,27.5,00.0,37.9,30.7,13.6,0001.1,0036.45,0020.24,0018.34
2021-09-10 01:03:00,,0828.8,4.99,0.00,29.0,27.8,00.0,37.9,30.9,13.5,0000.9,0037.03,0020.26,0018.33
2021-09-10 01:04:00,,0828.9,5.00,0.00,29.0,28.1,00.0,37.9,31.0,13.3,0000.4,0037.78,0020.28,0018.32
2021-09-10 01:05:00,,0828.9,5.00,0.00,29.1,28.2,00.0,38.0,31.0,13.4,0000.7,0037.21,0020.21,0018.31
2021-09-10 01:06:00,,0828.9,5.00,0.00,29.0,26.6,00.0,38.0,30.6,13.4,0001.1,0037.20,0020.16,0018.29
2021-09-10 01:07:00,,0828.9,5.01,0.00,28.9,25.3,00.0,37.9,30.2,13.5,0001.4,0037.85,0020.22,0018.31
2021-09-10 01:08:00,,0828.9,5.00,0.00,28.8,25.6,00.0,37.9,30.2,13.5,0001.1,0039.07,0020.25,0018.32
2021-09-10 01:09:00,,0828.9,5.00,0.00,28.8,26.1,00.0,37.9,30.3,13.6,0000.7,0039.34,0020.31,0018.32
2021-09-10 01:10:00,,0828.9,4.99,0.00,28.8,26.6,00.0,37.9,30.4,13.5,0000.9,0039.18,0020.31,0018.34
2021-09-10 01:11:00,,0828.9,5.01,0.00,28.8,27.0,00.0,37.9,30.6,13.5,0001.2,0040.22,0020.43,0018.35
2021-09-10 01:12:00,,0829.0,5.00,0.00,28.9,27.4,00.0,37.9,30.7,13.4,0000.7,0041.76,0020.40,0018.33
2021-09-10 01:13:00,,0829.0,4.98,0.00,28.9,27.8,00.0,37.9,30.8,13.2,0000.7,0041.32,0020.33,0018.33
2021-09-10 01:14:00,,0828.9,5.01,0.00,29.0,28.1,00.0,37.9,31.0,13.1,0000.6,0040.29,0020.31,0018.34
2021-09-10 01:15:00,,0828.9,5.00,0.00,29.1,27.6,00.0,38.0,30.8,13.1,0000.5,0039.43,0020.29,0018.36
2021-09-10 01:16:00,,0828.9,4.99,0.00,28.9,25.6,00.0,37.9,30.3,13.1,-000.1,0039.58,0020.43,0018.43
2021-09-10 01:17:00,,0828.9,5.01,0.00,28.8,25.2,00.0,37.9,30.1,13.1,-000.5,0039.21,0020.47,0018.49
2021-09-10 01:18:00,,0828.9,5.00,0.00,28.7,25.6,00.0,37.9,30.2,13.1,-001.1,0038.74,0020.49,0018.53
2021-09-10 01:19:00,,0829.0,5.00,0.00,28.7,26.1,00.0,37.8,30.4,13.0,-001.4,0037.34,0020.50,0018.54
2021-09-10 01:20:00,,0828.9,5.00,0.00,28.7,26.6,00.0,37.8,30.4,12.9,-001.1,0036.73,0020.50,0018.59
2021-09-10 01:21:00,,0829.0,5.01,0.00,28.8,27.0,00.0,37.8,30.6,12.7,-001.4,0037.68,0020.61,0018.65
2021-09-10 01:22:00,,0829.0,5.00,0.00,28.8,27.4,00.0,37.8,30.7,12.6,-001.5,0037.65,0020.58,0018.67
2021-09-10 01:23:00,,0829.0,4.99,0.00,28.9,27.7,00.0,37.9,30.8,12.5,-001.5,0035.48,0020.63,0018.72
2021-09-10 01:24:00,,0829.0,5.02,0.00,29.0,28.0,00.0,37.9,30.9,12.4,-001.5,0035.35,0020.72,0018.78
2021-09-10 01:25:00,,0829.0,5.00,0.00,29.0,28.2,00.0,37.9,31.0,12.4,-001.5,0034.69,0020.78,0018.85
2021-09-10 01:26:00,,0829.0,5.00,0.00,29.1,28.4,00.0,37.9,31.1,12.3,-001.4,0034.29,0020.84,0018.91
2021-09-10 01:27:00,,0829.0,4.99,0.00,29.1,27.3,00.0,38.0,30.8,12.2,-001.1,0033.90,0020.81,0018.93
2021-09-10 01:28:00,,0829.0,5.01,0.00,28.9,25.5,00.0,37.9,30.2,12.2,-000.3,0034.82,0020.84,0018.94
2021-09-10 01:29:00,,0829.0,5.00,0.00,28.8,25.4,00.0,37.9,30.2,12.2,-000.1,0034.57,0020.88,0018.98
2021-09-10 01:30:00,,0829.0,5.00,0.00,28.8,25.8,00.0,37.9,30.3,12.3,0000.2,0035.00,0020.97,0019.04
2021-09-10 01:31:00,,0828.9,5.01,0.00,28.7,26.3,00.0,37.9,30.4,12.3,0000.8,0035.86,0021.00,0019.07
2021-09-10 01:32:00,,0828.9,4.99,0.00,28.8,26.8,00.0,37.9,30.5,12.2,0001.4,0035.30,0020.94,0019.07
2021-09-10 01:33:00,,0829.0,5.01,0.00,28.8,27.2,00.0,37.9,30.7,12.2,0001.3,0035.39,0020.98,0019.13
2021-09-10 01:34:00,,0829.0,5.00,0.00,28.9,27.6,00.0,37.9,30.8,12.3,0001.0,0036.35,0020.97,0019.17
2021-09-10 01:35:00,,0829.0,5.00,0.00,28.9,27.9,00.0,37.9,30.9,12.2,0001.7,0038.58,0021.01,0019.22
2021-09-10 01:36:00,,0829.1,5.00,0.00,29.0,28.1,00.0,37.9,31.0,12.1,0002.3,0039.87,0021.11,0019.26
2021-09-10 01:37:00,,0829.1,5.00,0.00,29.1,28.3,00.0,37.9,31.0,12.2,0002.2,0040.29,0021.24,0019.31
2021-09-10 01:38:00,,0829.1,5.01,0.00,29.1,28.5,00.0,38.0,31.1,12.3,0002.2,0040.58,0021.30,0019.32
2021-09-10 01:39:00,,0829.0,4.99,0.00,29.2,27.8,00.0,38.0,31.0,12.3,0001.8,0040.85,0021.35,0019.36
2021-09-10 01:40:00,,0829.1,5.01,0.00,29.1,26.4,00.0,38.0,30.6,12.3,0001.9,0041.40,0021.33,0019.34
2021-09-10 01:41:00,,0829.0,4.99,0.00,29.0,26.4,00.0,38.0,30.6,12.5,0001.9,0041.72,0021.33,0019.34
2021-09-10 01:42:00,,0829.0,4.98,0.00,29.0,26.7,00.0,38.0,30.7,12.6,0001.8,0041.32,0021.40,0019.36
2021-09-10 01:43:00,,0829.1,5.01,0.00,29.0,27.1,00.0,38.0,30.7,12.5,0001.4,0041.47,0021.46,0019.39
2021-09-10 01:44:00,,0829.1,5.01,0.00,29.0,27.5,00.0,38.0,30.9,12.6,0001.4,0041.75,0021.47,0019.43
2021-09-10 01:45:00,,0829.1,5.00,0.00,29.1,27.8,00.0,38.0,31.0,12.6,0001.9,0041.75,0021.54,0019.46
2021-09-10 01:46:00,,0829.2,4.99,0.00,29.1,28.1,00.0,38.0,31.0,12.5,0001.4,0040.49,0021.59,0019.48
2021-09-10 01:47:00,,0829.2,5.00,0.00,29.2,28.3,00.0,38.1,31.1,12.6,0000.3,0040.50,0021.55,0019.49
2021-09-10 01:48:00,,0829.2,5.01,0.00,29.3,28.5,00.0,38.1,31.2,12.4,-000.1,0040.88,0021.47,0019.50
2021-09-10 01:49:00,,0829.2,5.00,0.00,29.3,28.1,00.0,38.1,31.1,12.3,-000.3,0042.03,0021.47,0019.53
2021-09-10 01:50:00,,0829.2,5.00,0.00,29.2,26.1,00.0,38.1,30.6,12.3,-000.6,0040.83,0021.46,0019.54
2021-09-10 01:51:00,,0829.3,5.01,0.00,29.0,25.4,00.0,38.1,30.4,12.5,-000.6,0040.40,0021.51,0019.61
2021-09-10 01:52:00,,0829.3,5.00,0.00,28.9,25.7,00.0,38.1,30.4,12.5,-000.9,0039.66,0021.46,0019.64
2021-09-10 01:53:00,,0829.2,5.00,0.00,28.9,26.2,00.0,38.1,30.5,12.5,-001.0,0039.43,0021.41,0019.69
2021-09-10 01:54:00,,0829.2,5.01,0.00,28.9,26.7,00.0,38.0,30.6,12.4,-001.0,0038.85,0021.46,0019.71
2021-09-10 01:55:00,,0829.3,4.99,0.00,28.9,27.1,00.0,38.0,30.7,12.4,-000.9,0037.59,0021.51,0019.72
2021-09-10 01:56:00,,0829.3,5.00,0.00,29.0,27.5,00.0,38.0,30.8,12.5,-001.0,0036.91,0021.52,0019.72
2021-09-10 01:57:00,,0829.3,5.00,0.00,29.0,27.8,00.0,38.0,30.9,12.5,-000.9,0037.01,0021.47,0019.74
2021-09-10 01:58:00,,0829.3,4.99,0.00,29.1,28.0,00.0,38.1,31.0,12.5,-000.5,0036.05,0021.45,0019.75
2021-09-10 01:59:00,,0829.2,5.00,0.00,29.2,28.2,00.0,38.1,31.1,12.5,-000.0,0036.30,0021.53,0019.75
